SL-19 R/B

Satellite information

Favourite Embed

Satellite Type and Status

ROCKET BODYIN ORBIT

Key statistics

Satellite SL-19 R/B at a glance.

Uptime

6918

Days in orbit

Revolutions

≈ 15.0

Per day

Orbit

SSO

Sun Synchronous Orbit

Inclination

98.2

Latest

Satellite identification and parameters

Extended collection of information and parameters for SL-19 R/B.

Object identification

Identified? True

Debris? False

Object name: SL-19 R/B

International designator: 2006-031B

Object number (NORAD): 29269

Object ID (CCSDS): 29269

Country: COMMONWEALTH OF INDEPENDENT STATES (CIS)

Current information (Y/N): Y

RCS size: LARGE

Orbital parameters

Period: 95.814 minutes

Inclination: 98.2398 deg

SMA: 6936.068 km

Apoapsis: 633.157 km

Periapsis: 482.71 km

RAAN: 151.3426 deg

Eccentricy: 0.0108453

Argument of periapsis: 223.6047 deg

Mean anomaly: 135.6568 deg

Mean motion: 15.02909112 rev/day

Mean motion (dot): 0.00000659 rev/day2

B* drag term: 0.00004858 1/REarth

Two-line elements (TLE)

Creation date: July 5, 2025, 10:36 p.m.

Reference frame: TEME

Reference center: EARTH

Epoch: July 5, 2025, 9:21 p.m. UTC

TLE line 0: 0 SL-19 R/B

TLE line 1: 1 29269U 06031B 25186.89007146 .00000659 00000-0 48580-4 0 9994

TLE line 2: 2 29269 98.2398 151.3426 0108453 223.6047 135.6568 15.02909112 32050

Live tracking on map

Real-time ground track for satellite SL-19 R/B.

In-orbit conjunctions

A list of the most updated potential collisions computed for object SL-19 R/B.

Target Orbit TCA Probability of collision Miss distance Type
CZ-6A DEB LEO 2025-06-01 03:42:56 0.000220896 130.0 (m) DEBRIS
PSLV DEB SSO 2024-12-28 23:18:46 0.0005686214 149.0 (m) DEBRIS

Associated space launch

KOMPSAT 2 (Korean Multi-purpose Satellite 2) is a lightweight Earth observation satellite developed by the Korea Aerospace Research Institute KARI. It provides high-resolution images, produced by the Multi-Spectral Camera (MSC), of the Korean peninsula for the production of maps and digital elevation models, applications for which include land use planning and disaster and risk management.

SL-19 R/B was lifted into orbit during the mission ‘Rokot / Briz-KM | Arirang-2’, on board a Rokot/Briz-KM space rocket.

The launch took place on July 28, 2006, 7:05 a.m. from 133/3 (133L).

For more information about the launch, click the button.

Launch to space Rokot / Briz-KM | Arirang-2
Rokot / Briz-KM | Arirang-2

Agency: N/A

Status: Launch Successful

Launch date: July 28, 2006, 7:05 a.m. UTC

Rocket: Rokot/Briz-KM

Launch pad: 133/3 (133L)

Location: Plesetsk Cosmodrome, Russian Federation

...

Latest news about this satellite

There are no fresh news available about this satellite. Check back as we update our databases every day.


Newsletter sign-up

Weekly statistics, charts and insights to help you stay on top of the space industry.